Location: Newark
(17.1458°N, 89.0741°W)
Time: 04:49:36
(UTC+00:00)

X-37B - Visible Passes

Search period start: 29 September 2020 00:00
Search period end: 09 October 2020 00:00
Orbit: 386 x 387 km, 45.0° (Epoch: 18 September)

Date Brightness Start Highest point End Pass type
(mag) Time Alt. Az. Time Alt. Az. Time Alt. Az.
29 Sep 1.0 00:18:35 10° SSW 00:21:37 44° SE 00:24:27 11° ENE visible
29 Sep 2.6 10:10:56 24° SE 10:10:56 24° SE 10:12:22 10° SE visible
30 Sep 2.9 00:57:04 10° W 00:59:36 22° NW 01:01:41 13° N visible
02 Oct 3.9 00:39:03 10° NW 00:39:11 10° NW 00:39:19 10° NW visible
